Airfield :
LOGIN :

Register | Disclaimer

   EN    FR    IT 

 










Legend :    VFR   Marginal VFR   IFR   Intensive IFR   Very Intensive IFR
Visi :
Ceiling :
>= 8 km
>= 3000ft
5 to 8 km
1000 to 3000 ft
1500m to 5 km
500 to 1000 ft
800 to 1500m
200 to 500 ft
< 800m
< 200 ft
Symbols :   Thunderstorms  Fog  Heavy snow  Heavy precipitations  Wind > 20 kt
SIGMETs :     Misc.  Thunderstorms  Icing  Turbulence  Mountain Waves  Volcanic Ashes






- Airport Elevation : 0 ft


ENQC - Troll C Platform

CURRENT METAR :
  • 310750Z AUTO 13010KT 9999NDV /// 14/10 Q1031 W///S2

EXPIRED METARs :
  • 310720Z AUTO 11007KT 9999NDV /// 15/09 Q1031 W///S3
  • 310650Z AUTO 10003KT 9999NDV /// 15/10 Q1031 W///S3
  • 310620Z AUTO 09004KT 9999NDV /// 15/10 Q1031 W///S3
  • 310550Z AUTO VRB01KT 9999NDV /// 14/10 Q1031 W///S3
  • 310520Z AUTO VRB02KT 9999NDV /// 13/09 Q1031 W///S3

TAF N/A



MET'MAP, your aeronautical weather chart ! - Copyright ORBIFLY December 2007 - Disclaimer

ORBIFLY MET'MAP TEAM :

Programming & Development : Alexandra Zaïnal
Concept & original design : Baudouin d'Aumeries
Assistance for programming : Marc-Olivier Méhu
Technical & hardware support : Manuel Goepfert

Contact : metmap@orbifly.com




SOURCES & CREDITS :

   NOAA